Location: ??? ?????
(30.6482°N, 60.5850°E)
Time: 20:05:12
(UTC+00:00)

Meteor 1-13 Rocket - Pass Details

Date: 09 April 2020
Orbit: 830 x 912 km, 81.3° (Epoch: 23 May)

Event Time Altitude Azimuth Distance (km) Brightness Sun altitude
Exits shadow 23:41:18 58° 228° (SW) 1,010 4.2 -24.2°
Maximum altitude 23:42:13 68° 278° (W) 932 4.1 -24.0°
Drops below altitude 10° 23:47:52 10° 2° (N) 2,491 7.0 -23.0°
Sets 23:50:17 0° 5° (N) 3,419 7.8 -22.5°
